Weather History for LFLB - September, 2013

Change the Weather History Date:

Friday, September 20, 2013

  Actual Average Record
Temperature  
Mean Temperature 56 °F -  
Max Temperature 69 °F 63 °F 79 °F (2014)
Min Temperature 44 °F 47 °F 41 °F (2007)
Degree Days  
Heating Degree Days 8    
Growing Degree Days 6 (Base 50)    
Moisture  
Dew Point 52 °F    
Average Humidity 81    
Maximum Humidity 100    
Minimum Humidity 59    
Precipitation  
Precipitation 0.00 in - - ()
Sea Level Pressure  
Sea Level Pressure 30.09 in    
Wind  
Wind Speed 2 mph ()    
Max Wind Speed 12 mph    
Max Gust Speed -    
Visibility 6.1 miles    
Events      
Averages and records for this station are not official NWS values.
T = Trace of Precipitation, MM = Missing Value Source: Averaged Metar Reports

Daily Weather History Graph

Daily Weather History Graph

Search for Another Location

Airport or City:

Trip Planner

Search our weather history database for the weather conditions in past years. The results will help you decide how hot, cold, wet, or windy it might be!

Date:

Astronomy

Sep. 20, 2013 Rise Set
Actual Time 7:21 AM CEST 7:37 PM CEST
Civil Twilight 6:51 AM CEST 8:07 PM CEST
Nautical Twilight 6:16 AM CEST 8:42 PM CEST
Astronomical Twilight 5:40 AM CEST 9:18 PM CEST
Moon 7:55 PM CEST (9/20) 8:23 AM CEST (9/20)
Length of Visible Light 13h 16m
Length of Day
12h 16m
Full, 99% of the Moon is Illuminated
Sep 20
Full
Sep 27
Last Quarter
Oct 5
New
Oct 12
First Quarter
Oct 19
Full

Hourly Weather History & Observations

Time (CEST) Temp. Windchill Dew Point Humidity Pressure Visibility Wind Dir Wind Speed Gust Speed Precip Events Conditions
12:00 AM 57.2 °F - 51.8 °F 82% 30.06 in 6.2 mi Calm Calm - N/A   Overcast
12:30 AM 57.2 °F - 51.8 °F 82% 30.06 in 6.2 mi SW 3.5 mph - N/A   Overcast
1:00 AM 57.2 °F - 51.8 °F 82% 30.06 in 6.2 mi SSW 2.3 mph - N/A   Overcast
1:30 AM 57.2 °F - 51.8 °F 82% 30.06 in 6.2 mi Variable 1.2 mph - N/A   Overcast
2:00 AM 57.2 °F - 51.8 °F 82% 30.06 in 6.2 mi West 1.2 mph - N/A   Overcast
2:30 AM 57.2 °F - 48.2 °F 72% 30.06 in 6.2 mi ENE 8.1 mph - N/A   Overcast
3:00 AM 53.6 °F - 48.2 °F 82% 30.06 in 6.2 mi South 5.8 mph - N/A   Scattered Clouds
3:30 AM 51.8 °F - 48.2 °F 88% 30.06 in 6.2 mi South 3.5 mph - N/A   Unknown
4:00 AM 51.8 °F - 48.2 °F 88% 30.06 in 6.2 mi WNW 1.2 mph - N/A   Unknown
4:30 AM 51.8 °F - 46.4 °F 82% 30.06 in 6.2 mi Variable 2.3 mph - N/A   Unknown
5:00 AM 50.0 °F - 46.4 °F 87% 30.09 in 6.2 mi Variable 2.3 mph - N/A   Unknown
5:30 AM 50.0 °F - 48.2 °F 94% 30.06 in 6.2 mi Variable 1.2 mph - N/A   Unknown
6:00 AM 48.2 °F - 46.4 °F 93% 30.06 in - Variable 1.2 mph - N/A   Clear
6:30 AM 48.2 °F - 46.4 °F 93% 30.09 in - Calm Calm - N/A   Clear
7:00 AM 46.4 °F - 44.6 °F 93% 30.09 in 6.2 mi Calm Calm - N/A   Scattered Clouds
7:30 AM 46.4 °F - 44.6 °F 93% 30.09 in 6.2 mi Variable 1.2 mph - N/A   Partly Cloudy
8:00 AM 44.6 °F 43.1 °F 44.6 °F 100% 30.09 in 6.2 mi SSE 3.5 mph - N/A   Partly Cloudy
8:30 AM 48.2 °F - 46.4 °F 93% 30.12 in 6.2 mi Calm Calm - N/A   Partly Cloudy
9:09 AM 51.8 °F - 48.2 °F 88% 30.12 in 6.2 mi Variable 2.3 mph - N/A   Partly Cloudy
9:30 AM 55.4 °F - 48.2 °F 77% 30.12 in 6.2 mi Calm Calm - N/A   Partly Cloudy
10:00 AM 57.2 °F - 50.0 °F 77% 30.12 in 6.2 mi Variable 2.3 mph - N/A   Partly Cloudy
10:30 AM 57.2 °F - 48.2 °F 72% 30.12 in 6.2 mi Variable 2.3 mph - N/A   Partly Cloudy
11:00 AM 59.0 °F - 50.0 °F 72% 30.12 in 6.2 mi Variable 2.3 mph - N/A   Partly Cloudy
12:00 PM 62.6 °F - 50.0 °F 63% 30.12 in 6.2 mi Variable 2.3 mph - N/A   Partly Cloudy
12:30 PM 62.6 °F - 50.0 °F 63% 30.09 in 6.2 mi Variable 3.5 mph - N/A   Partly Cloudy
1:00 PM 64.4 °F - 51.8 °F 64% 30.09 in 6.2 mi North 4.6 mph - N/A   Partly Cloudy
1:30 PM 64.4 °F - 53.6 °F 68% 30.09 in 6.2 mi North 4.6 mph - N/A   Partly Cloudy
2:00 PM 64.4 °F - 50.0 °F 59% 30.09 in 6.2 mi North 4.6 mph - N/A   Partly Cloudy
3:00 PM 68.0 °F - 53.6 °F 60% 30.09 in 6.2 mi Variable 3.5 mph - N/A   Partly Cloudy
3:30 PM 69.8 °F - 55.4 °F 60% 30.06 in 6.2 mi NNW 10.4 mph - N/A   Partly Cloudy
4:00 PM 69.8 °F - 57.2 °F 64% 30.06 in 6.2 mi North 8.1 mph - N/A   Partly Cloudy
4:30 PM 69.8 °F - 57.2 °F 64% 30.06 in 6.2 mi NNE 11.5 mph - N/A   Partly Cloudy
5:00 PM 69.8 °F - 59.0 °F 68% 30.06 in 6.2 mi North 10.4 mph - N/A   Partly Cloudy
5:30 PM 69.8 °F - 57.2 °F 64% 30.06 in 6.2 mi North 9.2 mph - N/A   Partly Cloudy
6:00 PM 68.0 °F - 57.2 °F 68% 30.09 in 6.2 mi Variable 2.3 mph - N/A   Scattered Clouds
6:30 PM 66.2 °F - 57.2 °F 73% 30.09 in 6.2 mi Variable 2.3 mph - N/A   Scattered Clouds
7:00 PM 64.4 °F - 59.0 °F 83% 30.09 in 6.2 mi Variable 1.2 mph - N/A   Mostly Cloudy
7:30 PM 62.6 °F - 59.0 °F 88% 30.09 in 6.2 mi Calm Calm - N/A   Mostly Cloudy
8:00 PM 62.6 °F - 59.0 °F 88% 30.09 in 1.2 mi West 2.3 mph - N/A   Mostly Cloudy
8:30 PM 60.8 °F - 59.0 °F 94% 30.12 in 6.2 mi Variable 2.3 mph - N/A   Overcast
9:00 PM 59.0 °F - 57.2 °F 94% 30.12 in 6.2 mi Variable 2.3 mph - N/A   Mostly Cloudy
9:30 PM 59.0 °F - 57.2 °F 94% 30.15 in 6.2 mi Calm Calm - N/A   Partly Cloudy
10:00 PM 57.2 °F - 55.4 °F 94% 30.15 in 6.2 mi Variable 1.2 mph - N/A   Unknown
10:30 PM 55.4 °F - 53.6 °F 94% 30.15 in 6.2 mi Calm Calm - N/A   Unknown
11:00 PM 55.4 °F - 53.6 °F 94% 30.18 in 6.2 mi Variable 2.3 mph - N/A   Unknown
11:30 PM 55.4 °F - 53.6 °F 94% 30.18 in 6.2 mi Calm Calm - N/A   Unknown